Weather History for St. George, UT

Change the Weather History Date:

Saturday, January 19, 2013

  Actual Average Record
Temperature  
Mean Temperature 39 °F -  
Max Temperature 55 °F 55 °F 71 °F (1986)
Min Temperature 23 °F 29 °F 11 °F (1943)
Degree Days  
Heating Degree Days 26    
Moisture  
Dew Point 14 °F    
Average Humidity 40    
Maximum Humidity 64    
Minimum Humidity 22    
Precipitation  
Precipitation 0.00 in - - ()
Sea Level Pressure  
Sea Level Pressure 30.39 in    
Wind  
Wind Speed 3 mph (SE)    
Max Wind Speed 13 mph    
Max Gust Speed -    
Visibility 10 miles    
Events      
Averages and records for this station are not official NWS values.
T = Trace of Precipitation, MM = Missing Value Source: NWS Daily Summary

Daily Weather History Graph

Daily Weather History Graph

Search for Another Location

Airport:

Trip Planner

Search our weather history database for the weather conditions in past years. The results will help you decide how hot, cold, wet, or windy it might be!

Date:

Astronomy

Jan. 19, 2013 Rise Set
Actual Time 7:45 AM MST 5:45 PM MST
Civil Twilight 7:17 AM MST 6:13 PM MST
Nautical Twilight 6:45 AM MST 6:45 PM MST
Astronomical Twilight 6:14 AM MST 7:16 PM MST
Moon 12:12 PM MST 1:25 AM MST
Length of Visible Light 10h 56m
Length of Day
10h 00m
First Quarter, 58% of the Moon is Illuminated
Jan 19
First Quarter
Jan 26
Full
Feb 3
Last Quarter
Feb 10
New
Feb 17
First Quarter

Hourly Weather History & Observations

Time (MST) Temp. Windchill Dew Point Humidity Pressure Visibility Wind Dir Wind Speed Gust Speed Precip Events Conditions
12:15 AM 35.6 °F 29.9 °F 12.2 °F 38% 30.38 in 10.0 mi NNE 6.9 mph - N/A   Clear
12:35 AM 35.6 °F 31.7 °F 12.2 °F 38% 30.38 in 10.0 mi NNE 4.6 mph - N/A   Clear
12:55 AM 33.8 °F - 12.2 °F 41% 30.38 in 10.0 mi Calm Calm - N/A   Clear
1:15 AM 33.8 °F - 12.2 °F 41% 30.39 in 10.0 mi Calm Calm - N/A   Clear
1:35 AM 30.2 °F - 12.2 °F 47% 30.39 in 10.0 mi Calm Calm - N/A   Clear
1:55 AM 30.2 °F 25.4 °F 10.4 °F 44% 30.39 in 10.0 mi SSE 4.6 mph - N/A   Clear
2:35 AM 30.2 °F - 12.2 °F 47% 30.40 in 10.0 mi Calm Calm - N/A   Clear
2:55 AM 28.4 °F - 12.2 °F 51% 30.40 in 10.0 mi Calm Calm - N/A   Clear
3:15 AM 28.4 °F - 12.2 °F 51% 30.40 in 10.0 mi Calm Calm - N/A   Clear
3:35 AM 28.4 °F - 12.2 °F 51% 30.39 in 10.0 mi Calm Calm - N/A   Clear
3:55 AM 28.4 °F - 12.2 °F 51% 30.40 in 10.0 mi Calm Calm - N/A   Clear
4:15 AM 26.6 °F - 12.2 °F 55% 30.40 in 10.0 mi Calm Calm - N/A   Clear
4:35 AM 28.4 °F 23.3 °F 12.2 °F 51% 30.41 in 10.0 mi South 4.6 mph - N/A   Clear
4:55 AM 24.8 °F 19.1 °F 10.4 °F 54% 30.41 in 10.0 mi SSE 4.6 mph - N/A   Clear
5:15 AM 26.6 °F - 10.4 °F 51% 30.41 in 10.0 mi Calm Calm - N/A   Clear
5:35 AM 26.6 °F - 12.2 °F 55% 30.42 in 10.0 mi Calm Calm - N/A   Clear
5:55 AM 24.8 °F - 10.4 °F 54% 30.42 in 10.0 mi Calm Calm - N/A   Clear
6:15 AM 24.8 °F - 12.2 °F 59% 30.42 in 10.0 mi Calm Calm - N/A   Clear
6:35 AM 26.6 °F 21.2 °F 10.4 °F 51% 30.43 in 10.0 mi SSW 4.6 mph - N/A   Clear
7:15 AM 24.8 °F - 10.4 °F 54% 30.44 in 10.0 mi Calm Calm - N/A   Clear
7:35 AM 24.8 °F - 12.2 °F 59% 30.44 in 10.0 mi Calm Calm - N/A   Clear
7:55 AM 24.8 °F - 12.2 °F 59% 30.45 in 10.0 mi Calm Calm - N/A   Clear
8:15 AM 23.0 °F 18.4 °F 10.4 °F 59% 30.46 in 10.0 mi NNW 3.5 mph - N/A   Clear
8:35 AM 24.8 °F - 14.0 °F 64% 30.46 in 10.0 mi Calm Calm - N/A   Clear
8:55 AM 26.6 °F - 15.8 °F 64% 30.47 in 10.0 mi Calm Calm - N/A   Clear
9:15 AM 26.6 °F - 14.0 °F 59% 30.48 in 10.0 mi Calm Calm - N/A   Clear
9:35 AM 28.4 °F 23.3 °F 14.0 °F 55% 30.48 in 10.0 mi SSW 4.6 mph - N/A   Clear
9:55 AM 30.2 °F - 14.0 °F 51% 30.48 in 10.0 mi Calm Calm - N/A   Clear
10:15 AM 32.0 °F - 15.8 °F 51% 30.49 in 10.0 mi Calm Calm - N/A   Clear
10:35 AM 33.8 °F 28.6 °F 15.8 °F 48% 30.49 in 10.0 mi South 5.8 mph - N/A   Clear
10:55 AM 35.6 °F 31.7 °F 15.8 °F 44% 30.48 in 10.0 mi South 4.6 mph - N/A   Clear
11:15 AM 37.4 °F 32.8 °F 15.8 °F 41% 30.48 in 10.0 mi SSW 5.8 mph - N/A   Clear
11:35 AM 39.2 °F 37.0 °F 15.8 °F 39% 30.46 in 10.0 mi SSW 3.5 mph - N/A   Clear
12:15 PM 42.8 °F - 15.8 °F 34% 30.43 in 10.0 mi Calm Calm - N/A   Clear
12:35 PM 42.8 °F - 17.6 °F 36% 30.41 in 10.0 mi Calm Calm - N/A   Clear
12:55 PM 42.8 °F - 17.6 °F 36% 30.40 in 10.0 mi Calm Calm - N/A   Clear
1:15 PM 44.6 °F - 17.6 °F 34% 30.39 in 10.0 mi Calm Calm - N/A   Clear
1:55 PM 46.4 °F - 15.8 °F 29% 30.37 in 10.0 mi Calm Calm - N/A   Clear
2:15 PM 48.2 °F - 17.6 °F 30% 30.37 in 10.0 mi Calm Calm - N/A   Clear
2:35 PM 48.2 °F - 17.6 °F 30% 30.36 in 10.0 mi Calm Calm - N/A   Clear
2:55 PM 51.8 °F - 17.6 °F 26% 30.35 in 10.0 mi Calm Calm - N/A   Clear
3:15 PM 51.8 °F - 15.8 °F 24% 30.34 in 10.0 mi Calm Calm - N/A   Clear
3:35 PM 53.6 °F - 15.8 °F 22% 30.34 in 10.0 mi Calm Calm - N/A   Clear
3:55 PM 51.8 °F - 15.8 °F 24% 30.34 in 10.0 mi Calm Calm - N/A   Clear
4:15 PM 53.6 °F - 15.8 °F 22% 30.33 in 10.0 mi ESE 3.5 mph - N/A   Clear
4:35 PM 55.4 °F - 17.6 °F 23% 30.33 in 10.0 mi Calm Calm - N/A   Clear
5:15 PM 51.8 °F - 15.8 °F 24% 30.32 in 10.0 mi Calm Calm - N/A   Clear
5:35 PM 51.8 °F - 15.8 °F 24% 30.32 in 10.0 mi Calm Calm - N/A   Clear
5:55 PM 50.0 °F - 15.8 °F 26% 30.32 in 10.0 mi SW 3.5 mph - N/A   Clear
6:15 PM 46.4 °F - 15.8 °F 29% 30.33 in 10.0 mi Calm Calm - N/A   Clear
6:35 PM 48.2 °F - 12.2 °F 24% 30.33 in 10.0 mi ENE 11.5 mph - N/A   Clear
6:55 PM 46.4 °F 41.9 °F 12.2 °F 25% 30.34 in 10.0 mi NE 9.2 mph - N/A   Clear
7:15 PM 46.4 °F 42.4 °F 12.2 °F 25% 30.34 in 10.0 mi NNE 8.1 mph - N/A   Clear
7:35 PM 48.2 °F - 12.2 °F 24% 30.34 in 10.0 mi North 8.1 mph - N/A   Clear
7:55 PM 44.6 °F 38.4 °F 10.4 °F 25% 30.34 in 10.0 mi NNE 12.7 mph - N/A   Clear
8:15 PM 44.6 °F 40.7 °F 12.2 °F 27% 30.35 in 10.0 mi NNE 6.9 mph - N/A   Clear
8:35 PM 39.2 °F 37.0 °F 10.4 °F 31% 30.36 in 10.0 mi SE 3.5 mph - N/A   Clear
8:55 PM 41.0 °F 38.0 °F 12.2 °F 31% 30.36 in 10.0 mi East 4.6 mph - N/A   Clear
9:15 PM 41.0 °F 39.0 °F 12.2 °F 31% 30.37 in 10.0 mi South 3.5 mph - N/A   Clear
9:35 PM 42.8 °F 41.1 °F 14.0 °F 31% 30.37 in 10.0 mi ESE 3.5 mph - N/A   Clear
9:55 PM 39.2 °F 37.0 °F 12.2 °F 33% 30.37 in 10.0 mi SW 3.5 mph - N/A   Clear
10:15 PM 37.4 °F 34.9 °F 12.2 °F 36% 30.38 in 10.0 mi South 3.5 mph - N/A   Clear
10:35 PM 35.6 °F 32.8 °F 12.2 °F 38% 30.38 in 10.0 mi ESE 3.5 mph - N/A   Clear
10:55 PM 37.4 °F 34.9 °F 12.2 °F 36% 30.38 in 10.0 mi SE 3.5 mph - N/A   Clear
11:15 PM 35.6 °F 32.8 °F 12.2 °F 38% 30.39 in 10.0 mi South 3.5 mph - N/A   Clear
11:35 PM 37.4 °F 33.8 °F 12.2 °F 36% 30.39 in 10.0 mi South 4.6 mph - N/A   Clear